�������l�o���
Date,Time,MP-1(��Sv/h),MP-2(��Sv/h),MP-3(��Sv/h),MP-4(��Sv/h),MP-5(��Sv/h),MP-6(��Sv/h),MP-7(��Sv/h),MP-8(��Sv/h),����,����(m/s),���J
2022/08/09,00:00,0.606,0.858,0.541,1.021,0.739,0.345,0.594,0.559,��쐼,3.8,��
2022/08/09,00:10,0.606,0.857,0.541,1.021,0.741,0.344,0.594,0.558,��,4.0,��
2022/08/09,00:20,0.606,0.859,0.543,1.022,0.740,0.346,0.595,0.559,��,4.3,��
2022/08/09,00:30,0.606,0.859,0.540,1.021,0.739,0.344,0.595,0.559,��,3.1,��
2022/08/09,00:40,0.605,0.859,0.541,1.022,0.738,0.346,0.593,0.558,��,3.7,��
2022/08/09,00:50,0.605,0.859,0.540,1.024,0.740,0.344,0.596,0.559,��쐼,3.2,��
2022/08/09,01:00,0.605,0.858,0.542,1.024,0.740,0.345,0.594,0.559,��쐼,3.1,��
2022/08/09,01:10,0.608,0.858,0.542,1.023,0.740,0.346,0.594,0.559,�쐼,2.2,��
2022/08/09,01:20,0.606,0.859,0.541,1.022,0.740,0.347,0.594,0.558,�쐼,2.0,��
2022/08/09,01:30,0.607,0.859,0.543,1.025,0.742,0.346,0.593,0.560,��쐼,2.3,��
2022/08/09,01:40,0.607,0.860,0.542,1.023,0.738,0.345,0.593,0.560,��,2.0,��
2022/08/09,01:50,0.608,0.860,0.541,1.024,0.739,0.347,0.595,0.558,��,2.9,��
2022/08/09,02:00,0.606,0.858,0.540,1.023,0.742,0.345,0.595,0.559,��쓌,2.6,��
2022/08/09,02:10,0.607,0.861,0.541,1.022,0.739,0.344,0.596,0.560,��쓌,3.0,��
2022/08/09,02:20,0.606,0.858,0.540,1.023,0.739,0.347,0.595,0.559,��,3.5,��
2022/08/09,02:30,0.606,0.859,0.540,1.022,0.738,0.346,0.595,0.560,��쐼,4.1,��
2022/08/09,02:40,0.606,0.858,0.540,1.020,0.741,0.345,0.594,0.559,��,4.6,��
2022/08/09,02:50,0.606,0.858,0.543,1.022,0.740,0.347,0.594,0.558,��,4.4,��
2022/08/09,03:00,0.606,0.858,0.542,1.026,0.739,0.346,0.596,0.559,��,5.1,��
2022/08/09,03:10,0.605,0.859,0.541,1.023,0.740,0.347,0.593,0.559,��,4.5,��
2022/08/09,03:20,0.604,0.860,0.541,1.024,0.741,0.345,0.595,0.559,��,5.2,��
2022/08/09,03:30,0.606,0.859,0.541,1.023,0.739,0.347,0.595,0.559,��,5.3,��
2022/08/09,03:40,0.605,0.857,0.541,1.023,0.739,0.344,0.595,0.559,��쐼,5.5,��
2022/08/09,03:50,0.607,0.856,0.543,1.024,0.741,0.345,0.596,0.560,��쐼,5.4,��
2022/08/09,04:00,0.604,0.860,0.541,1.023,0.740,0.345,0.593,0.560,�쐼,4.9,��
2022/08/09,04:10,0.606,0.858,0.542,1.024,0.741,0.346,0.595,0.559,���쐼,3.7,��
2022/08/09,04:20,0.609,0.857,0.541,1.024,0.740,0.347,0.596,0.559,�쐼,2.5,��
2022/08/09,04:30,0.605,0.859,0.542,1.026,0.742,0.346,0.593,0.559,���쐼,1.7,��
2022/08/09,04:40,0.604,0.860,0.541,1.025,0.738,0.345,0.594,0.560,��,0.8,��
2022/08/09,04:50,0.606,0.859,0.541,1.024,0.741,0.345,0.596,0.558,�쐼,0.8,��
2022/08/09,05:00,0.606,0.860,0.541,1.024,0.740,0.347,0.596,0.559,��,1.1,��
2022/08/09,05:10,0.608,0.859,0.542,1.022,0.739,0.346,0.595,0.560,��,1.2,��
2022/08/09,05:20,0.606,0.857,0.540,1.026,0.740,0.345,0.594,0.561,�쐼,1.5,��
2022/08/09,05:30,0.606,0.858,0.542,1.023,0.741,0.346,0.595,0.560,�쐼,2.2,��
2022/08/09,05:40,0.606,0.860,0.541,1.024,0.739,0.347,0.596,0.560,�쐼,2.6,��
2022/08/09,05:50,0.606,0.860,0.541,1.022,0.739,0.346,0.594,0.559,�쐼,2.8,��
2022/08/09,06:00,0.606,0.861,0.541,1.025,0.741,0.345,0.596,0.561,��쐼,3.7,��
2022/08/09,06:10,0.606,0.858,0.542,1.024,0.740,0.345,0.595,0.559,��쐼,3.9,��
2022/08/09,06:20,0.605,0.859,0.543,1.025,0.740,0.345,0.595,0.559,��쐼,3.9,��
2022/08/09,06:30,0.605,0.859,0.543,1.024,0.740,0.346,0.594,0.559,��쐼,3.5,��
2022/08/09,06:40,0.607,0.861,0.542,1.023,0.739,0.345,0.595,0.559,��쐼,3.6,��
2022/08/09,06:50,0.608,0.859,0.542,1.023,0.739,0.345,0.596,0.559,��쐼,3.7,��
2022/08/09,07:00,0.607,0.859,0.541,1.024,0.741,0.346,0.596,0.559,�쐼,4.2,��
2022/08/09,07:10,0.606,0.858,0.542,1.024,0.740,0.346,0.594,0.559,�쐼,3.6,��
2022/08/09,07:20,0.607,0.859,0.542,1.022,0.741,0.347,0.595,0.559,��쐼,3.9,��
2022/08/09,07:30,0.609,0.859,0.540,1.023,0.740,0.346,0.594,0.559,��쐼,3.9,��
2022/08/09,07:40,0.608,0.859,0.541,1.023,0.740,0.345,0.596,0.558,�쐼,3.1,��
2022/08/09,07:50,0.608,0.858,0.542,1.023,0.742,0.346,0.595,0.558,�쐼,3.3,��
2022/08/09,08:00,0.607,0.859,0.543,1.024,0.741,0.345,0.594,0.560,�쐼,2.6,��
2022/08/09,08:10,0.608,0.856,0.543,1.023,0.736,0.346,0.595,0.562,��쐼,2.3,��
2022/08/09,08:20,0.608,0.856,0.542,1.023,0.741,0.346,0.595,0.561,��쐼,2.3,��
2022/08/09,08:30,0.607,0.856,0.541,1.022,0.738,0.346,0.597,0.559,��,2.3,��
2022/08/09,08:40,0.607,0.855,0.538,1.023,0.739,0.345,0.597,0.559,��쓌,2.6,��
2022/08/09,08:50,0.606,0.857,0.540,1.024,0.739,0.345,0.597,0.557,��쓌,3.5,��
2022/08/09,09:00,0.608,0.855,0.540,1.024,0.739,0.346,0.596,0.559,��쓌,4.3,��
2022/08/09,09:10,0.607,0.854,0.539,1.023,0.740,0.345,0.596,0.557,��쓌,4.4,��
2022/08/09,09:20,0.607,0.856,0.540,1.024,0.739,0.344,0.596,0.558,��쓌,3.9,��
2022/08/09,09:30,0.606,0.857,0.540,1.023,0.740,0.343,0.596,0.558,��쓌,4.6,��
2022/08/09,09:40,0.608,0.858,0.542,1.026,0.739,0.344,0.596,0.559,��쓌,4.3,��
2022/08/09,09:50,0.610,0.858,0.542,1.024,0.739,0.344,0.596,0.558,��쓌,5.4,��
2022/08/09,10:00,0.609,0.861,0.541,1.023,0.740,0.345,0.594,0.557,�쓌,4.8,��
2022/08/09,10:10,0.609,0.861,0.543,1.023,0.741,0.346,0.595,0.558,��쓌,5.9,��
2022/08/09,10:20,0.608,0.860,0.542,1.024,0.741,0.347,0.594,0.557,��쓌,5.9,��
2022/08/09,10:30,0.607,0.860,0.543,1.024,0.741,0.345,0.594,0.559,��쓌,5.9,��
2022/08/09,10:40,0.607,0.861,0.543,1.024,0.739,0.345,0.594,0.559,��,6.3,��
2022/08/09,10:50,0.607,0.860,0.544,1.025,0.743,0.344,0.595,0.559,��쓌,5.5,��
2022/08/09,11:00,0.608,0.861,0.544,1.027,0.744,0.344,0.595,0.560,��쓌,3.3,��
2022/08/09,11:10,0.608,0.862,0.544,1.024,0.742,0.344,0.595,0.557,��쓌,3.6,��
2022/08/09,11:20,0.608,0.862,0.542,1.026,0.744,0.345,0.596,0.559,��,4.5,��
2022/08/09,11:30,0.610,0.864,0.544,1.025,0.745,0.345,0.596,0.560,��쓌,6.2,��
2022/08/09,11:40,0.610,0.862,0.544,1.024,0.744,0.346,0.596,0.559,��쓌,7.6,��
2022/08/09,11:50,0.610,0.864,0.544,1.025,0.746,0.346,0.596,0.560,��쓌,6.8,��
2022/08/09,12:00,0.608,0.864,0.544,1.024,0.747,0.345,0.595,0.558,��,6.5,��
2022/08/09,12:10,0.610,0.862,0.545,1.025,0.744,0.345,0.595,0.560,��,6.7,��
2022/08/09,12:20,0.610,0.860,0.543,1.025,0.746,0.346,0.594,0.560,��,6.0,��
2022/08/09,12:30,0.610,0.863,0.544,1.028,0.746,0.347,0.594,0.561,��,6.2,��
2022/08/09,12:40,0.610,0.862,0.544,1.025,0.746,0.348,0.596,0.560,��쓌,7.7,��
2022/08/09,12:50,0.611,0.866,0.545,1.025,0.747,0.344,0.596,0.560,��쓌,8.4,��
2022/08/09,13:00,0.608,0.865,0.544,1.024,0.747,0.346,0.598,0.561,��쓌,8.7,��
2022/08/09,13:10,0.611,0.864,0.545,1.026,0.747,0.346,0.597,0.559,��쓌,10.0,��
2022/08/09,13:20,0.609,0.864,0.545,1.027,0.746,0.347,0.598,0.561,��,8.3,��
2022/08/09,13:30,0.613,0.864,0.543,1.028,0.746,0.347,0.600,0.558,��,7.2,��
2022/08/09,13:40,0.612,0.862,0.544,1.031,0.749,0.346,0.599,0.560,��,7.5,��
2022/08/09,13:50,0.610,0.864,0.546,1.028,0.746,0.346,0.599,0.559,��,5.8,��
2022/08/09,14:00,0.611,0.865,0.546,1.029,0.749,0.346,0.599,0.560,��,5.4,��
2022/08/09,14:10,0.612,0.865,0.546,1.030,0.748,0.346,0.599,0.560,��,6.3,��
2022/08/09,14:20,0.612,0.864,0.547,1.029,0.748,0.347,0.598,0.563,��,4.8,��
2022/08/09,14:30,0.613,0.866,0.545,1.028,0.748,0.344,0.597,0.561,��,5.2,��
2022/08/09,14:40,0.613,0.866,0.546,1.031,0.748,0.345,0.599,0.562,��,6.0,��
2022/08/09,14:50,0.615,0.866,0.545,1.028,0.748,0.347,0.598,0.562,��,5.1,��
2022/08/09,15:00,0.615,0.865,0.547,1.031,0.750,0.347,0.600,0.560,��,4.6,��
2022/08/09,15:10,0.613,0.866,0.545,1.031,0.749,0.347,0.598,0.561,��,5.2,��
2022/08/09,15:20,0.612,0.866,0.546,1.030,0.749,0.347,0.598,0.561,��,4.9,��
2022/08/09,15:30,0.613,0.865,0.545,1.031,0.747,0.347,0.597,0.561,��,5.0,��
2022/08/09,15:40,0.612,0.866,0.544,1.031,0.748,0.345,0.598,0.560,��,5.6,��
2022/08/09,15:50,0.611,0.864,0.545,1.031,0.746,0.346,0.595,0.561,��,5.7,��
2022/08/09,16:00,0.612,0.868,0.543,1.031,0.748,0.344,0.598,0.560,��,4.6,��
2022/08/09,16:10,0.611,0.866,0.543,1.030,0.744,0.344,0.596,0.560,��,5.2,��
2022/08/09,16:20,0.612,0.867,0.543,1.031,0.746,0.344,0.595,0.559,��,7.0,��
2022/08/09,16:30,0.612,0.863,0.544,1.032,0.747,0.345,0.596,0.561,��,7.1,��
2022/08/09,16:40,0.612,0.865,0.543,1.029,0.745,0.346,0.598,0.559,��,7.4,��
2022/08/09,16:50,0.607,0.863,0.542,1.030,0.744,0.346,0.598,0.561,��,8.4,��
2022/08/09,17:00,0.609,0.865,0.544,1.031,0.746,0.345,0.598,0.560,��,6.5,�L
2022/08/09,17:10,0.608,0.863,0.543,1.030,0.743,0.344,0.597,0.560,�쐼,3.1,�L
2022/08/09,17:20,0.605,0.854,0.540,1.027,0.737,0.345,0.597,0.560,��,5.8,�L
2022/08/09,17:30,0.599,0.834,0.530,1.011,0.724,0.345,0.592,0.558,���k��,10.5,�L
2022/08/09,17:40,0.579,0.813,0.527,0.989,0.714,0.345,0.587,0.554,���k��,9.1,�L
2022/08/09,17:50,0.585,0.819,0.528,0.978,0.707,0.345,0.585,0.552,��,1.2,�L
2022/08/09,18:00,0.595,0.824,0.534,0.984,0.715,0.349,0.585,0.553,���쐼,5.3,�L
2022/08/09,18:10,0.599,0.826,0.533,0.988,0.716,0.351,0.587,0.553,��쐼,6.8,�L
2022/08/09,18:20,0.599,0.826,0.533,0.988,0.716,0.349,0.585,0.553,��,4.9,�L
2022/08/09,18:30,0.596,0.827,0.533,0.988,0.716,0.349,0.586,0.552,��쐼,3.2,�L
2022/08/09,18:40,0.598,0.825,0.531,0.986,0.716,0.347,0.584,0.551,��,3.8,��
2022/08/09,18:50,0.595,0.825,0.528,0.986,0.713,0.345,0.584,0.549,��쐼,3.5,��
2022/08/09,19:00,0.592,0.822,0.526,0.984,0.712,0.344,0.583,0.549,�쐼,4.6,��
2022/08/09,19:10,0.592,0.821,0.525,0.984,0.710,0.342,0.583,0.550,���쐼,4.2,��
2022/08/09,19:20,0.588,0.821,0.524,0.984,0.711,0.340,0.583,0.551,�쐼,3.3,��
2022/08/09,19:30,0.588,0.821,0.524,0.982,0.708,0.340,0.582,0.550,���쐼,3.0,��
2022/08/09,19:40,0.587,0.821,0.523,0.983,0.710,0.340,0.582,0.550,���쐼,2.5,��
2022/08/09,19:50,0.585,0.819,0.522,0.982,0.709,0.338,0.582,0.548,�쐼,2.8,��
2022/08/09,20:00,0.585,0.819,0.521,0.985,0.706,0.339,0.582,0.549,�쐼,3.5,��
2022/08/09,20:10,0.582,0.818,0.522,0.983,0.709,0.338,0.581,0.549,�쐼,3.4,��
2022/08/09,20:20,0.586,0.820,0.521,0.985,0.710,0.337,0.582,0.548,��쐼,3.0,��
2022/08/09,20:30,0.584,0.820,0.522,0.985,0.709,0.335,0.581,0.549,�쐼,2.8,��
2022/08/09,20:40,0.584,0.821,0.521,0.985,0.709,0.337,0.583,0.549,�쐼,2.6,��
2022/08/09,20:50,0.586,0.817,0.522,0.986,0.709,0.336,0.583,0.549,���쐼,3.7,��
2022/08/09,21:00,0.588,0.819,0.523,0.983,0.711,0.337,0.582,0.550,�쐼,4.3,��
2022/08/09,21:10,0.585,0.822,0.520,0.985,0.710,0.336,0.582,0.550,���쐼,3.5,��
2022/08/09,21:20,0.586,0.819,0.521,0.987,0.711,0.337,0.581,0.550,���쐼,3.6,��
2022/08/09,21:30,0.584,0.820,0.520,0.988,0.709,0.338,0.583,0.550,���쐼,2.9,��
2022/08/09,21:40,0.582,0.820,0.520,0.986,0.709,0.338,0.582,0.549,���k��,2.9,��
2022/08/09,21:50,0.584,0.821,0.520,0.988,0.710,0.338,0.582,0.549,���k��,2.0,��
2022/08/09,22:00,0.585,0.821,0.521,0.986,0.709,0.338,0.582,0.548,-,CALM,��
2022/08/09,22:10,0.584,0.820,0.521,0.988,0.708,0.339,0.582,0.550,�k,0.6,��
2022/08/09,22:20,0.586,0.821,0.521,0.989,0.710,0.337,0.584,0.549,�k�k��,1.4,��
2022/08/09,22:30,0.585,0.821,0.521,0.988,0.710,0.337,0.582,0.549,�k��,0.6,��
2022/08/09,22:40,0.585,0.819,0.521,0.986,0.710,0.337,0.583,0.550,-,CALM,��
2022/08/09,22:50,0.584,0.821,0.521,0.987,0.710,0.338,0.582,0.549,���쓌,1.9,��
2022/08/09,23:00,0.584,0.821,0.522,0.987,0.711,0.337,0.582,0.549,�쓌,1.5,��
2022/08/09,23:10,0.584,0.820,0.523,0.986,0.709,0.338,0.582,0.550,��쐼,2.0,��
2022/08/09,23:20,0.584,0.819,0.521,0.987,0.709,0.336,0.582,0.550,��쓌,3.1,��
2022/08/09,23:30,0.585,0.822,0.522,0.987,0.709,0.339,0.583,0.551,�쐼,4.1,��
2022/08/09,23:40,0.584,0.820,0.521,0.988,0.709,0.339,0.584,0.551,���쐼,3.6,��
2022/08/09,23:50,0.584,0.820,0.521,0.988,0.710,0.338,0.583,0.550,��쐼,2.6,��
